Kahului, HI

6:24 AM HST on December 07, 2016 (GMT -1000)
Kahului

Weather History for PHOG - March, 2013

Change the Weather History Date:

Tuesday, March 5, 2013

  Actual Average Record
Temperature  
Mean Temperature 74 °F 72 °F  
Max Temperature 81 °F 81 °F 89 °F (1994)
Min Temperature 67 °F 64 °F 53 °F (1950)
Degree Days  
Heating Degree Days 0 0  
Month to date heating degree days 0 0  
Since 1 July heating degree days 0 0  
Cooling Degree Days 9 7  
Month to date cooling degree days 46 35  
Year to date cooling degree days 479 444  
Growing Degree Days 22 (Base 50)    
Moisture  
Dew Point 61 °F    
Average Humidity 63    
Maximum Humidity 78    
Minimum Humidity 48    
Precipitation  
Precipitation 0.00 in 0.07 in 1.57 in (1953)
Month to date precipitation 0.03 0.35  
Year to date precipitation 4.98 5.11  
Snow  
Snow 0.00 in - - ()
Month to date snowfall 0.0  
Since 1 July snowfall 0.0  
Snow Depth 0.00 in    
Sea Level Pressure  
Sea Level Pressure 30.14 in    
Wind  
Wind Speed 14 mph (NE)    
Max Wind Speed 25 mph    
Max Gust Speed 31 mph    
Visibility 10 miles    
Events      
T = Trace of Precipitation, MM = Missing Value Source: NWS Daily Summary

Daily Weather History Graph

Daily Weather History Graph

Search for Another Location

Airport or City:

Trip Planner

Search our weather history database for the weather conditions in past years. The results will help you decide how hot, cold, wet, or windy it might be!

Date:

Astronomy

Mar. 05, 2013 Rise Set
Actual Time 6:42 AM HST 6:31 PM HST
Civil Twilight 6:20 AM HST 6:54 PM HST
Nautical Twilight 5:54 AM HST 7:19 PM HST
Astronomical Twilight 5:28 AM HST 7:45 PM HST
Moon 1:33 AM HST (3/5) 12:54 PM HST (3/5)
Length of Visible Light 12h 33m
Length of Day
11h 49m
Last Quarter, 39% of the Moon is Illuminated
Mar 5
Last Quarter
Mar 11
New
Mar 19
First Quarter
Mar 26
Full
Apr 2
Last Quarter

Hourly Weather History & Observations

Time (HST) Temp. Heat Index Dew Point Humidity Pressure Visibility Wind Dir Wind Speed Gust Speed Precip Events Conditions
12:54 AM 69.1 °F - 57.0 °F 65% 30.17 in 10.0 mi NE 9.2 mph - N/A   Clear
1:54 AM 69.1 °F - 59.0 °F 70% 30.15 in 10.0 mi NE 12.7 mph - N/A   Clear
2:54 AM 69.1 °F - 60.1 °F 73% 30.14 in 10.0 mi NE 10.4 mph - N/A   Overcast
3:54 AM 68.0 °F - 60.1 °F 76% 30.13 in 10.0 mi NE 11.5 mph - N/A   Partly Cloudy
4:54 AM 69.1 °F - 60.1 °F 73% 30.14 in 10.0 mi NE 8.1 mph - N/A   Mostly Cloudy
5:54 AM 68.0 °F - 60.1 °F 76% 30.14 in 10.0 mi NE 6.9 mph - N/A   Mostly Cloudy
6:54 AM 66.9 °F - 57.9 °F 73% 30.16 in 10.0 mi NE 8.1 mph - N/A   Partly Cloudy
7:54 AM 70.0 °F - 59.0 °F 68% 30.18 in 10.0 mi NE 8.1 mph - N/A   Partly Cloudy
8:54 AM 73.9 °F - 57.9 °F 57% 30.18 in 10.0 mi NE 11.5 mph 17.3 mph N/A   Scattered Clouds
9:54 AM 75.9 °F - 57.0 °F 52% 30.18 in 10.0 mi ENE 15.0 mph 20.7 mph N/A   Partly Cloudy
10:54 AM 78.1 °F - 57.0 °F 48% 30.15 in 10.0 mi ENE 15.0 mph 24.2 mph N/A   Partly Cloudy
11:54 AM 78.1 °F - 57.9 °F 50% 30.13 in 10.0 mi NE 20.7 mph 25.3 mph N/A   Partly Cloudy
12:54 PM 80.1 °F 81.1 °F 61.0 °F 52% 30.10 in 10.0 mi NE 24.2 mph 28.8 mph N/A   Partly Cloudy
1:54 PM 79.0 °F - 64.0 °F 60% 30.08 in 10.0 mi NE 20.7 mph 29.9 mph N/A   Scattered Clouds
2:54 PM 77.0 °F - 63.0 °F 62% 30.08 in 10.0 mi NE 19.6 mph 28.8 mph N/A   Partly Cloudy
3:54 PM 75.9 °F - 63.0 °F 64% 30.08 in 10.0 mi NNE 20.7 mph - N/A   Scattered Clouds
4:54 PM 75.0 °F - 63.0 °F 66% 30.09 in 10.0 mi NE 20.7 mph 26.5 mph N/A   Scattered Clouds
5:54 PM 73.0 °F - 63.0 °F 71% 30.10 in 10.0 mi NE 16.1 mph 24.2 mph N/A   Scattered Clouds
6:54 PM 72.0 °F - 63.0 °F 73% 30.12 in 10.0 mi NE 13.8 mph 23.0 mph N/A   Partly Cloudy
7:54 PM 70.0 °F - 63.0 °F 78% 30.14 in 10.0 mi ENE 13.8 mph 23.0 mph N/A   Partly Cloudy
8:54 PM 70.0 °F - 63.0 °F 78% 30.16 in 10.0 mi NE 13.8 mph - N/A   Clear
9:54 PM 69.1 °F - 61.0 °F 75% 30.16 in 10.0 mi ENE 6.9 mph - N/A   Partly Cloudy
10:54 PM 69.1 °F - 62.1 °F 78% 30.16 in 10.0 mi NE 11.5 mph - N/A   Partly Cloudy
11:54 PM 69.1 °F - 63.0 °F 81% 30.17 in 10.0 mi NE 10.4 mph - N/A   Overcast